sat.trackr.live / text

‹ back to catalog

DEMO8 (TENZING)

NORAD 48951 · 2021-059CA

PAYLOAD ACTIVE UNKNOWN

§ Identity

Operator
Country
US
Launch date
2021-06-30
Launch site
AFETR
Launch vehicle
Mass (kg)
RCS (m²)

External: N2YO · Heavens-Above · Gunter

§ Orbital elements

Epoch: 2026-09-15T08:47:23.866080Z

Period
92.41 min
Inclination
97.6963°
Eccentricity
0.0006695
Mean motion
15.58273401 rev/d
Perigee alt
388.1 km
Apogee alt
397.2 km
Semi-major
6,770.8 km
B*
2.8787e-4
RAAN
98.8705°
Arg perigee
26.2597°
Mean anomaly
333.8996°
Rev number
29,133

§ Raw data

DEMO8 (TENZING)1 48951U 21059CA  26258.36624845  .00021717  00000+0  28787-3 0  99972 48951  97.6963  98.8705 0006695  26.2597 333.8996 15.58273401291338

JSON: /api/v1/satellites/48951 · /tle

For live sub-satellite position, see the globe view (requires WebGL).

§ Visibility from observer

Set your observer location to see the next 7 days of passes ≥ 10°. The values pass through the URL so the page stays shareable.

No JS? Fill the form by hand. The geolocation button needs JavaScript.

§ Radio — SatNOGS DB

ModeDescriptionDownlinkUplink
FM Mode U 400.502 MHz
FM Mode U - FM 400.500 MHz

2 transmitters · refreshed weekly from db.satnogs.org